Time,TemperatureF,DewpointF,PressureIn,WindDirection,WindDirectionDegrees,WindSpeedMPH,WindSpeedGustMPH,Humidity,HourlyPrecipIn,Conditions,Clouds,dailyrainin,SolarRadiationWatts/m^2,SoftwareType,DateUTC
2013-09-23 00:02:00,78.5,75.0,29.84,SSW,208,0.0,0.0,89,0.00,,,0.00,0,Wunderground v.1.15,2013-09-23 04:02:00,
2013-09-23 00:07:00,78.5,75.0,29.84,SSW,208,0.0,0.0,89,0.00,,,0.00,0,Wunderground v.1.15,2013-09-23 04:07:00,
2013-09-23 00:12:00,78.5,75.3,29.84,SSW,208,0.0,0.0,90,0.00,,,0.00,0,Wunderground v.1.15,2013-09-23 04:12:00,
2013-09-23 00:17:00,78.3,75.1,29.84,SSW,208,0.0,0.0,90,0.00,,,0.00,0,Wunderground v.1.15,2013-09-23 04:17:00,
2013-09-23 00:22:00,78.3,75.1,29.84,SSW,208,0.0,0.0,90,0.00,,,0.00,0,Wunderground v.1.15,2013-09-23 04:22:00,
2013-09-23 00:32:00,78.3,75.1,29.84,SSW,208,0.0,0.0,90,0.00,,,0.00,0,Wunderground v.1.15,2013-09-23 04:32:00,
2013-09-23 00:42:00,78.3,75.1,29.83,SSW,208,0.0,1.0,90,0.00,,,0.00,0,Wunderground v.1.15,2013-09-23 04:42:00,
2013-09-23 00:47:00,78.5,75.3,29.83,SSW,208,0.0,1.0,90,0.00,,,0.00,0,Wunderground v.1.15,2013-09-23 04:47:00,
2013-09-23 00:57:00,78.6,75.8,29.83,SSW,208,1.0,1.0,91,0.00,,,0.00,0,Wunderground v.1.15,2013-09-23 04:57:00,
2013-09-23 01:07:00,78.6,75.8,29.83,SSW,208,0.0,1.0,91,0.00,,,0.00,0,Wunderground v.1.15,2013-09-23 05:07:00,
2013-09-23 01:12:00,78.6,75.8,29.83,SSW,208,0.0,0.0,91,0.00,,,0.00,0,Wunderground v.1.15,2013-09-23 05:12:00,
2013-09-23 01:22:00,78.5,75.7,29.83,SSW,208,0.0,1.0,91,0.00,,,0.00,0,Wunderground v.1.15,2013-09-23 05:22:00,
2013-09-23 01:32:00,78.6,75.8,29.83,SSW,208,0.0,0.0,91,0.00,,,0.00,0,Wunderground v.1.15,2013-09-23 05:32:00,
2013-09-23 01:37:00,78.5,75.7,29.83,SSW,208,0.0,0.0,91,0.00,,,0.00,0,Wunderground v.1.15,2013-09-23 05:37:00,
2013-09-23 01:47:00,78.6,75.8,29.83,SSW,208,0.0,0.0,91,0.00,,,0.00,0,Wunderground v.1.15,2013-09-23 05:47:00,
2013-09-23 01:57:00,78.5,75.7,29.83,SSW,208,0.0,0.0,91,0.00,,,0.00,0,Wunderground v.1.15,2013-09-23 05:57:00,
2013-09-23 02:02:00,78.5,75.7,29.82,SSW,208,0.0,0.0,91,0.00,,,0.00,0,Wunderground v.1.15,2013-09-23 06:02:00,
2013-09-23 02:12:00,78.5,75.7,29.82,SSW,208,0.0,0.0,91,0.00,,,0.00,0,Wunderground v.1.15,2013-09-23 06:12:00,
2013-09-23 02:17:00,78.5,76.0,29.82,SSW,208,0.0,0.0,92,0.00,,,0.00,0,Wunderground v.1.15,2013-09-23 06:17:00,
2013-09-23 02:27:00,78.5,76.0,29.82,SSW,200,1.0,1.0,92,0.00,,,0.00,0,Wunderground v.1.15,2013-09-23 06:27:00,
2013-09-23 02:37:00,78.5,76.0,29.82,SE,138,2.0,2.0,92,0.00,,,0.00,0,Wunderground v.1.15,2013-09-23 06:37:00,
2013-09-23 02:42:00,78.5,76.0,29.82,SE,138,2.0,2.0,92,0.00,,,0.00,0,Wunderground v.1.15,2013-09-23 06:42:00,
2013-09-23 02:52:00,78.5,76.0,29.82,SE,138,1.0,1.0,92,0.00,,,0.00,0,Wunderground v.1.15,2013-09-23 06:52:00,
2013-09-23 03:02:00,78.6,76.1,29.82,SE,138,1.0,3.0,92,0.00,,,0.00,0,Wunderground v.1.15,2013-09-23 07:02:00,
2013-09-23 03:07:00,78.6,76.1,29.82,SE,138,1.0,3.0,92,0.00,,,0.00,0,Wunderground v.1.15,2013-09-23 07:07:00,
2013-09-23 03:17:00,78.8,76.3,29.81,ESE,117,2.0,2.0,92,0.00,,,0.00,0,Wunderground v.1.15,2013-09-23 07:17:00,
2013-09-23 03:27:00,79.0,76.5,29.81,ESE,117,1.0,2.0,92,0.00,,,0.00,0,Wunderground v.1.15,2013-09-23 07:27:00,
2013-09-23 03:32:00,79.0,76.5,29.81,ESE,114,1.0,2.0,92,0.00,,,0.00,0,Wunderground v.1.15,2013-09-23 07:32:00,
2013-09-23 03:42:00,79.0,76.5,29.81,ESE,114,1.0,1.0,92,0.00,,,0.00,0,Wunderground v.1.15,2013-09-23 07:42:00,
2013-09-23 03:52:00,79.0,76.5,29.82,ESE,114,1.0,1.0,92,0.00,,,0.00,0,Wunderground v.1.15,2013-09-23 07:52:00,
2013-09-23 04:02:00,78.8,76.3,29.82,ESE,114,0.0,1.0,92,0.00,,,0.00,0,Wunderground v.1.15,2013-09-23 08:02:00,
2013-09-23 04:07:00,78.8,76.3,29.82,ESE,114,1.0,1.0,92,0.00,,,0.00,0,Wunderground v.1.15,2013-09-23 08:07:00,
2013-09-23 04:17:00,78.6,76.1,29.83,ESE,114,2.0,2.0,92,0.00,,,0.00,0,Wunderground v.1.15,2013-09-23 08:17:00,
2013-09-23 04:27:00,78.6,76.1,29.83,ESE,119,2.0,2.0,92,0.00,,,0.00,0,Wunderground v.1.15,2013-09-23 08:27:00,
2013-09-23 04:32:00,78.6,76.1,29.83,ESE,119,1.0,3.0,92,0.00,,,0.00,0,Wunderground v.1.15,2013-09-23 08:32:00,
2013-09-23 04:42:00,78.6,76.1,29.84,ESE,119,1.0,2.0,92,0.00,,,0.00,0,Wunderground v.1.15,2013-09-23 08:42:00,
2013-09-23 04:47:00,78.5,76.0,29.83,ESE,119,2.0,2.0,92,0.00,,,0.00,0,Wunderground v.1.15,2013-09-23 08:47:00,
2013-09-23 04:57:00,78.5,76.0,29.83,ESE,119,1.0,1.0,92,0.00,,,0.00,0,Wunderground v.1.15,2013-09-23 08:57:00,
2013-09-23 05:07:00,78.5,76.0,29.84,ESE,107,1.0,2.0,92,0.00,,,0.00,0,Wunderground v.1.15,2013-09-23 09:07:00,
2013-09-23 05:12:00,78.5,76.0,29.84,ESE,107,2.0,2.0,92,0.00,,,0.00,0,Wunderground v.1.15,2013-09-23 09:12:00,
2013-09-23 05:22:00,78.3,75.8,29.84,ESE,103,2.0,3.0,92,0.00,,,0.00,0,Wunderground v.1.15,2013-09-23 09:22:00,
2013-09-23 05:27:00,78.3,75.8,29.84,ESE,103,2.0,3.0,92,0.00,,,0.00,0,Wunderground v.1.15,2013-09-23 09:27:00,
2013-09-23 05:37:00,78.3,75.8,29.84,ESE,112,2.0,4.0,92,0.00,,,0.00,0,Wunderground v.1.15,2013-09-23 09:37:00,
2013-09-23 05:47:00,78.3,75.8,29.84,ESE,103,3.0,4.0,92,0.00,,,0.00,0,Wunderground v.1.15,2013-09-23 09:47:00,
2013-09-23 05:52:00,78.3,75.8,29.84,ESE,121,3.0,5.0,92,0.00,,,0.00,0,Wunderground v.1.15,2013-09-23 09:52:00,
2013-09-23 06:02:00,78.3,75.8,29.84,ESE,117,2.0,6.0,92,0.00,,,0.00,0,Wunderground v.1.15,2013-09-23 10:02:00,
2013-09-23 06:12:00,78.3,75.8,29.84,East,99,2.0,3.0,92,0.00,,,0.00,0,Wunderground v.1.15,2013-09-23 10:12:00,
2013-09-23 06:17:00,78.3,75.8,29.84,East,93,3.0,6.0,92,0.00,,,0.00,0,Wunderground v.1.15,2013-09-23 10:17:00,
2013-09-23 06:27:00,78.3,76.1,29.84,ESE,106,4.0,5.0,93,0.00,,,0.00,0,Wunderground v.1.15,2013-09-23 10:27:00,
2013-09-23 06:37:00,78.3,76.1,29.84,ESE,109,3.0,5.0,93,0.00,,,0.00,0,Wunderground v.1.15,2013-09-23 10:37:00,
2013-09-23 06:47:00,78.3,76.1,29.85,ESE,107,4.0,4.0,93,0.00,,,0.00,0,Wunderground v.1.15,2013-09-23 10:47:00,
2013-09-23 06:52:00,78.3,76.1,29.85,ESE,109,3.0,3.0,93,0.00,,,0.00,0,Wunderground v.1.15,2013-09-23 10:52:00,
2013-09-23 07:02:00,78.5,76.3,29.86,ESE,110,2.0,2.0,93,0.00,,,0.00,0,Wunderground v.1.15,2013-09-23 11:02:00,
2013-09-23 07:12:00,78.5,76.3,29.86,ESE,121,2.0,3.0,93,0.00,,,0.01,0,Wunderground v.1.15,2013-09-23 11:12:00,
2013-09-23 07:17:00,78.6,76.4,29.86,SE,128,2.0,3.0,93,0.13,,,0.02,0,Wunderground v.1.15,2013-09-23 11:17:00,
2013-09-23 07:27:00,78.6,76.4,29.85,ESE,113,1.0,2.0,93,0.05,,,0.02,0,Wunderground v.1.15,2013-09-23 11:27:00,
2013-09-23 07:37:00,78.6,76.4,29.85,ESE,112,3.0,4.0,93,0.00,,,0.02,5,Wunderground v.1.15,2013-09-23 11:37:00,
2013-09-23 07:42:00,78.6,76.4,29.86,East,99,2.0,2.0,93,0.00,,,0.02,12,Wunderground v.1.15,2013-09-23 11:42:00,
2013-09-23 07:52:00,78.6,76.4,29.85,East,100,2.0,3.0,93,0.00,,,0.02,21,Wunderground v.1.15,2013-09-23 11:52:00,
2013-09-23 08:02:00,78.6,76.4,29.86,SE,126,2.0,5.0,93,0.00,,,0.02,14,Wunderground v.1.15,2013-09-23 12:02:00,
2013-09-23 08:07:00,78.8,76.9,29.86,East,97,2.0,5.0,94,0.00,,,0.02,40,Wunderground v.1.15,2013-09-23 12:07:00,
2013-09-23 08:17:00,78.8,76.9,29.86,ESE,109,2.0,2.0,94,0.00,,,0.03,83,Wunderground v.1.15,2013-09-23 12:17:00,
2013-09-23 08:22:00,79.0,77.1,29.86,East,96,2.0,2.0,94,0.00,,,0.03,141,Wunderground v.1.15,2013-09-23 12:22:00,
2013-09-23 08:32:00,79.2,77.3,29.87,ESE,112,3.0,6.0,94,0.00,,,0.03,113,Wunderground v.1.15,2013-09-23 12:32:00,
2013-09-23 08:42:00,79.4,77.5,29.87,SE,126,4.0,5.0,94,0.00,,,0.03,155,Wunderground v.1.15,2013-09-23 12:42:00,
2013-09-23 08:47:00,79.6,77.7,29.87,ESE,104,4.0,5.0,94,0.00,,,0.03,190,Wunderground v.1.15,2013-09-23 12:47:00,
2013-09-23 08:57:00,79.9,78.0,29.88,ESE,119,5.0,5.0,94,0.00,,,0.03,197,Wunderground v.1.15,2013-09-23 12:57:00,
2013-09-23 09:07:00,80.7,78.5,29.88,ESE,112,4.0,7.0,93,0.00,,,0.03,253,Wunderground v.1.15,2013-09-23 13:07:00,
2013-09-23 09:17:00,80.7,78.2,29.88,ESE,107,5.0,6.0,92,0.00,,,0.03,229,Wunderground v.1.15,2013-09-23 13:17:00,
2013-09-23 09:22:00,80.7,78.2,29.88,SE,141,6.0,8.0,92,0.00,,,0.03,250,Wunderground v.1.15,2013-09-23 13:22:00,
2013-09-23 09:32:00,80.9,78.4,29.88,SE,143,5.0,7.0,92,0.00,,,0.03,306,Wunderground v.1.15,2013-09-23 13:32:00,
2013-09-23 09:42:00,81.4,78.5,29.89,SSE,148,6.0,8.0,91,0.00,,,0.03,194,Wunderground v.1.15,2013-09-23 13:42:00,
2013-09-23 09:47:00,81.4,78.2,29.89,SE,124,6.0,8.0,90,0.00,,,0.03,123,Wunderground v.1.15,2013-09-23 13:47:00,
2013-09-23 09:57:00,81.2,78.0,29.89,SE,138,6.0,7.0,90,0.00,,,0.03,55,Wunderground v.1.15,2013-09-23 13:57:00,
2013-09-23 10:07:00,80.9,77.7,29.89,SE,136,6.0,8.0,90,0.58,,,0.12,72,Wunderground v.1.15,2013-09-23 14:07:00,
2013-09-23 10:12:00,80.3,77.1,29.89,SE,131,6.0,7.0,90,0.11,,,0.13,91,Wunderground v.1.15,2013-09-23 14:12:00,
2013-09-23 10:22:00,79.6,77.1,29.89,ESE,104,4.0,4.0,92,0.06,,,0.13,185,Wunderground v.1.15,2013-09-23 14:22:00,
2013-09-23 10:27:00,79.6,77.1,29.90,SE,140,3.0,7.0,92,0.04,,,0.13,118,Wunderground v.1.15,2013-09-23 14:27:00,
2013-09-23 10:37:00,79.8,77.6,29.89,ESE,102,3.0,5.0,93,0.00,,,0.14,208,Wunderground v.1.15,2013-09-23 14:37:00,
2013-09-23 10:47:00,80.7,78.2,29.89,ESE,107,2.0,2.0,92,0.00,,,0.14,190,Wunderground v.1.15,2013-09-23 14:47:00,
2013-09-23 10:52:00,80.5,78.0,29.88,ESE,112,2.0,2.0,92,0.00,,,0.14,174,Wunderground v.1.15,2013-09-23 14:52:00,
2013-09-23 11:02:00,80.9,78.4,29.89,SE,131,2.0,7.0,92,0.00,,,0.14,211,Wunderground v.1.15,2013-09-23 15:02:00,
2013-09-23 11:12:00,81.2,78.7,29.89,East,90,3.0,3.0,92,0.00,,,0.14,74,Wunderground v.1.15,2013-09-23 15:12:00,
2013-09-23 11:17:00,81.2,78.3,29.89,ESE,110,2.0,3.0,91,0.00,,,0.14,32,Wunderground v.1.15,2013-09-23 15:17:00,
2013-09-23 11:27:00,80.9,78.0,29.90,SSE,152,4.0,5.0,91,0.00,,,0.14,33,Wunderground v.1.15,2013-09-23 15:27:00,
2013-09-23 11:37:00,79.9,76.7,29.92,South,189,6.0,6.0,90,4.11,,,0.37,11,Wunderground v.1.15,2013-09-23 15:37:00,
2013-09-23 11:42:00,78.6,75.4,29.92,South,182,8.0,8.0,90,3.47,,,0.66,26,Wunderground v.1.15,2013-09-23 15:42:00,
2013-09-23 11:52:00,77.6,74.8,29.92,SE,143,3.0,3.0,91,0.09,,,0.71,67,Wunderground v.1.15,2013-09-23 15:52:00,
2013-09-23 12:02:00,77.4,74.6,29.92,SSE,147,3.0,3.0,91,0.04,,,0.71,114,Wunderground v.1.15,2013-09-23 16:02:00,
2013-09-23 12:12:00,77.0,74.8,29.92,SE,141,2.0,2.0,93,0.00,,,0.71,187,Wunderground v.1.15,2013-09-23 16:12:00,
2013-09-23 12:22:00,77.2,75.3,29.92,SSE,152,3.0,3.0,94,0.00,,,0.72,93,Wunderground v.1.15,2013-09-23 16:22:00,
2013-09-23 12:32:00,77.0,75.1,29.92,SE,127,2.0,2.0,94,0.11,,,0.74,67,Wunderground v.1.15,2013-09-23 16:32:00,
2013-09-23 12:37:00,77.0,75.1,29.92,SE,127,2.0,2.0,94,0.06,,,0.74,86,Wunderground v.1.15,2013-09-23 16:37:00,
2013-09-23 12:47:00,77.2,75.7,29.91,East,100,3.0,3.0,95,0.09,,,0.76,199,Wunderground v.1.15,2013-09-23 16:47:00,
2013-09-23 12:52:00,77.4,75.9,29.91,SE,126,3.0,5.0,95,0.08,,,0.76,100,Wunderground v.1.15,2013-09-23 16:52:00,
2013-09-23 13:02:00,77.7,76.2,29.90,ESE,109,2.0,2.0,95,0.00,,,0.76,139,Wunderground v.1.15,2013-09-23 17:02:00,
2013-09-23 13:12:00,77.6,76.1,29.90,SE,131,3.0,3.0,95,0.00,,,0.76,130,Wunderground v.1.15,2013-09-23 17:12:00,
2013-09-23 13:22:00,77.9,76.4,29.90,East,89,2.0,2.0,95,0.00,,,0.76,222,Wunderground v.1.15,2013-09-23 17:22:00,
2013-09-23 13:27:00,78.1,76.6,29.90,SE,138,3.0,5.0,95,0.00,,,0.76,195,Wunderground v.1.15,2013-09-23 17:27:00,
2013-09-23 13:37:00,78.5,76.9,29.90,SE,136,4.0,7.0,95,0.00,,,0.76,248,Wunderground v.1.15,2013-09-23 17:37:00,
2013-09-23 13:42:00,78.5,76.9,29.90,SE,127,4.0,6.0,95,0.00,,,0.76,311,Wunderground v.1.15,2013-09-23 17:42:00,
2013-09-23 13:52:00,79.6,78.0,29.89,SE,126,3.0,3.0,95,0.00,,,0.76,456,Wunderground v.1.15,2013-09-23 17:52:00,
2013-09-23 14:02:00,79.9,78.0,29.89,East,86,5.0,5.0,94,0.00,,,0.76,711,Wunderground v.1.15,2013-09-23 18:02:00,
2013-09-23 14:07:00,79.8,77.6,29.88,ESE,117,5.0,5.0,93,0.00,,,0.76,308,Wunderground v.1.15,2013-09-23 18:07:00,
2013-09-23 14:17:00,80.3,77.8,29.88,SSE,148,4.0,8.0,92,0.00,,,0.76,387,Wunderground v.1.15,2013-09-23 18:17:00,
2013-09-23 14:22:00,80.3,77.4,29.87,SE,124,5.0,5.0,91,0.00,,,0.76,412,Wunderground v.1.15,2013-09-23 18:22:00,
2013-09-23 14:32:00,81.6,78.4,29.88,East,92,4.0,5.0,90,0.00,,,0.76,311,Wunderground v.1.15,2013-09-23 18:32:00,
2013-09-23 14:42:00,80.3,76.8,29.88,East,97,5.0,5.0,89,0.00,,,0.76,160,Wunderground v.1.15,2013-09-23 18:42:00,
2013-09-23 14:52:00,80.3,77.1,29.88,SE,124,5.0,5.0,90,0.00,,,0.76,215,Wunderground v.1.15,2013-09-23 18:52:00,
2013-09-23 14:57:00,80.3,76.8,29.88,ESE,103,5.0,5.0,89,0.00,,,0.76,174,Wunderground v.1.15,2013-09-23 18:57:00,
2013-09-23 15:07:00,80.3,76.8,29.88,ESE,117,6.0,10.0,89,0.00,,,0.76,181,Wunderground v.1.15,2013-09-23 19:07:00,
2013-09-23 15:12:00,80.5,77.0,29.88,SSE,150,5.0,6.0,89,0.00,,,0.76,143,Wunderground v.1.15,2013-09-23 19:12:00,
2013-09-23 15:22:00,80.7,77.2,29.88,ESE,103,4.0,4.0,89,0.00,,,0.76,190,Wunderground v.1.15,2013-09-23 19:22:00,
2013-09-23 15:32:00,80.5,77.0,29.87,ESE,117,5.0,5.0,89,0.00,,,0.76,181,Wunderground v.1.15,2013-09-23 19:32:00,
2013-09-23 15:42:00,80.3,76.8,29.87,East,97,4.0,6.0,89,0.00,,,0.76,155,Wunderground v.1.15,2013-09-23 19:42:00,
2013-09-23 15:47:00,80.3,76.8,29.88,ESE,113,4.0,6.0,89,0.00,,,0.76,120,Wunderground v.1.15,2013-09-23 19:47:00,
2013-09-23 15:57:00,80.1,76.9,29.88,SE,124,5.0,6.0,90,0.00,,,0.76,81,Wunderground v.1.15,2013-09-23 19:57:00,
2013-09-23 16:07:00,80.1,76.9,29.88,SE,133,4.0,5.0,90,0.00,,,0.76,86,Wunderground v.1.15,2013-09-23 20:07:00,
2013-09-23 16:12:00,80.3,77.1,29.89,SSE,157,4.0,4.0,90,0.00,,,0.76,90,Wunderground v.1.15,2013-09-23 20:12:00,
2013-09-23 16:22:00,79.9,76.4,29.89,SSE,168,5.0,7.0,89,0.00,,,0.76,79,Wunderground v.1.15,2013-09-23 20:22:00,
2013-09-23 16:27:00,79.8,76.3,29.89,SE,145,4.0,7.0,89,0.00,,,0.76,72,Wunderground v.1.15,2013-09-23 20:27:00,
2013-09-23 16:37:00,79.6,76.1,29.89,SSE,155,4.0,5.0,89,0.00,,,0.76,77,Wunderground v.1.15,2013-09-23 20:37:00,
2013-09-23 16:47:00,79.6,75.7,29.89,SSE,150,3.0,3.0,88,0.00,,,0.76,62,Wunderground v.1.15,2013-09-23 20:47:00,
2013-09-23 16:52:00,79.6,75.7,29.89,ESE,123,3.0,3.0,88,0.00,,,0.76,53,Wunderground v.1.15,2013-09-23 20:52:00,
2013-09-23 17:02:00,79.4,75.5,29.89,SE,141,3.0,4.0,88,0.00,,,0.76,30,Wunderground v.1.15,2013-09-23 21:02:00,
2013-09-23 17:12:00,79.6,75.7,29.88,SSE,150,4.0,6.0,88,0.13,,,0.79,53,Wunderground v.1.15,2013-09-23 21:12:00,
2013-09-23 17:22:00,79.6,76.1,29.88,SE,134,3.0,5.0,89,0.04,,,0.79,79,Wunderground v.1.15,2013-09-23 21:22:00,
2013-09-23 17:32:00,79.2,75.7,29.89,SE,138,2.0,2.0,89,0.00,,,0.79,63,Wunderground v.1.15,2013-09-23 21:32:00,
2013-09-23 17:37:00,79.2,76.0,29.89,SE,138,1.0,3.0,90,0.00,,,0.79,56,Wunderground v.1.15,2013-09-23 21:37:00,
2013-09-23 17:47:00,79.2,76.0,29.89,SE,143,2.0,3.0,90,0.00,,,0.79,53,Wunderground v.1.15,2013-09-23 21:47:00,
2013-09-23 17:52:00,79.2,76.0,29.90,ESE,114,2.0,3.0,90,0.00,,,0.79,48,Wunderground v.1.15,2013-09-23 21:52:00,
2013-09-23 18:02:00,79.2,76.3,29.90,SE,124,3.0,3.0,91,0.00,,,0.79,14,Wunderground v.1.15,2013-09-23 22:02:00,
2013-09-23 18:12:00,79.2,76.3,29.90,SE,130,3.0,3.0,91,0.32,,,0.81,12,Wunderground v.1.15,2013-09-23 22:12:00,
2013-09-23 18:17:00,79.2,76.3,29.89,ESE,117,3.0,5.0,91,0.25,,,0.83,11,Wunderground v.1.15,2013-09-23 22:17:00,
2013-09-23 18:27:00,79.0,76.1,29.90,ESE,121,5.0,7.0,91,0.10,,,0.86,0,Wunderground v.1.15,2013-09-23 22:27:00,
2013-09-23 18:37:00,78.1,75.3,29.90,SE,124,6.0,6.0,91,0.06,,,0.86,16,Wunderground v.1.15,2013-09-23 22:37:00,
2013-09-23 18:47:00,77.4,74.9,29.89,SE,138,5.0,6.0,92,0.00,,,0.87,14,Wunderground v.1.15,2013-09-23 22:47:00,
2013-09-23 18:52:00,77.2,74.7,29.89,SE,131,6.0,6.0,92,0.00,,,0.87,12,Wunderground v.1.15,2013-09-23 22:52:00,
2013-09-23 19:02:00,77.0,74.5,29.89,ESE,121,4.0,7.0,92,0.06,,,0.88,11,Wunderground v.1.15,2013-09-23 23:02:00,
2013-09-23 19:12:00,77.2,75.0,29.89,ESE,113,5.0,12.0,93,0.04,,,0.88,7,Wunderground v.1.15,2013-09-23 23:12:00,
2013-09-23 19:17:00,77.0,74.8,29.89,ESE,121,5.0,12.0,93,0.00,,,0.88,0,Wunderground v.1.15,2013-09-23 23:17:00,
2013-09-23 19:27:00,77.2,75.0,29.89,East,99,4.0,7.0,93,0.00,,,0.88,0,Wunderground v.1.15,2013-09-23 23:27:00,
2013-09-23 19:37:00,77.4,75.5,29.90,SE,136,3.0,4.0,94,0.00,,,0.88,0,Wunderground v.1.15,2013-09-23 23:37:00,
2013-09-23 19:42:00,77.4,75.5,29.90,SSE,147,3.0,3.0,94,0.00,,,0.88,0,Wunderground v.1.15,2013-09-23 23:42:00,
2013-09-23 19:52:00,77.6,75.7,29.90,SE,128,3.0,5.0,94,0.00,,,0.88,0,Wunderground v.1.15,2013-09-23 23:52:00,
2013-09-23 20:02:00,77.6,75.7,29.89,ESE,107,4.0,4.0,94,0.00,,,0.88,0,Wunderground v.1.15,2013-09-24 00:02:00,
2013-09-23 20:12:00,77.6,75.7,29.89,SE,136,3.0,3.0,94,0.00,,,0.88,0,Wunderground v.1.15,2013-09-24 00:12:00,
2013-09-23 20:22:00,77.6,75.7,29.90,SE,145,2.0,2.0,94,0.00,,,0.88,0,Wunderground v.1.15,2013-09-24 00:22:00,
2013-09-23 20:32:00,77.6,75.7,29.90,ESE,119,2.0,3.0,94,0.00,,,0.88,0,Wunderground v.1.15,2013-09-24 00:32:00,
2013-09-23 20:42:00,77.6,75.7,29.90,SE,130,2.0,2.0,94,0.00,,,0.88,0,Wunderground v.1.15,2013-09-24 00:42:00,
2013-09-23 20:52:00,77.4,75.5,29.90,SE,138,2.0,4.0,94,0.00,,,0.88,0,Wunderground v.1.15,2013-09-24 00:52:00,
2013-09-23 21:02:00,77.4,75.5,29.91,SE,138,3.0,3.0,94,0.00,,,0.88,0,Wunderground v.1.15,2013-09-24 01:02:00,
2013-09-23 21:12:00,77.4,75.9,29.92,SSE,147,1.0,3.0,95,0.00,,,0.88,0,Wunderground v.1.15,2013-09-24 01:12:00,
2013-09-23 21:22:00,77.4,75.9,29.92,ESE,117,2.0,3.0,95,0.00,,,0.88,0,Wunderground v.1.15,2013-09-24 01:22:00,
2013-09-23 21:32:00,77.4,75.9,29.91,SE,124,4.0,4.0,95,0.00,,,0.88,0,Wunderground v.1.15,2013-09-24 01:32:00,
2013-09-23 21:42:00,77.2,75.7,29.91,SE,128,5.0,5.0,95,0.00,,,0.88,0,Wunderground v.1.15,2013-09-24 01:42:00,
2013-09-23 21:52:00,77.2,75.7,29.92,ESE,119,6.0,6.0,95,0.00,,,0.88,0,Wunderground v.1.15,2013-09-24 01:52:00,
2013-09-23 22:02:00,77.0,75.5,29.92,SE,131,6.0,6.0,95,0.00,,,0.88,0,Wunderground v.1.15,2013-09-24 02:02:00,
2013-09-23 22:12:00,77.0,75.5,29.92,ESE,112,6.0,6.0,95,0.00,,,0.88,0,Wunderground v.1.15,2013-09-24 02:12:00,
2013-09-23 22:17:00,77.0,75.5,29.92,ESE,120,6.0,6.0,95,0.00,,,0.88,0,Wunderground v.1.15,2013-09-24 02:17:00,
2013-09-23 22:27:00,77.0,75.5,29.92,SSE,150,5.0,6.0,95,0.00,,,0.88,0,Wunderground v.1.15,2013-09-24 02:27:00,
2013-09-23 22:32:00,77.0,75.5,29.92,SSE,157,5.0,6.0,95,0.00,,,0.88,0,Wunderground v.1.15,2013-09-24 02:32:00,
2013-09-23 22:42:00,77.0,75.5,29.92,SE,136,5.0,9.0,95,0.00,,,0.88,0,Wunderground v.1.15,2013-09-24 02:42:00,
2013-09-23 22:52:00,77.0,75.5,29.93,SSE,164,5.0,5.0,95,0.00,,,0.88,0,Wunderground v.1.15,2013-09-24 02:52:00,
2013-09-23 23:02:00,77.0,75.5,29.93,South,169,4.0,4.0,95,0.00,,,0.88,0,Wunderground v.1.15,2013-09-24 03:02:00,
2013-09-23 23:07:00,77.0,75.5,29.93,South,174,2.0,4.0,95,0.00,,,0.88,0,Wunderground v.1.15,2013-09-24 03:07:00,
2013-09-23 23:17:00,77.0,75.5,29.93,SSE,168,3.0,3.0,95,0.00,,,0.88,0,Wunderground v.1.15,2013-09-24 03:17:00,
2013-09-23 23:27:00,77.0,75.5,29.93,SE,131,3.0,4.0,95,0.00,,,0.88,0,Wunderground v.1.15,2013-09-24 03:27:00,
2013-09-23 23:32:00,77.0,75.5,29.93,SE,137,4.0,4.0,95,0.00,,,0.88,0,Wunderground v.1.15,2013-09-24 03:32:00,
2013-09-23 23:37:00,77.0,75.5,29.92,SE,133,4.0,7.0,95,0.00,,,0.88,0,Wunderground v.1.15,2013-09-24 03:37:00,
2013-09-23 23:47:00,76.8,75.3,29.92,ESE,114,5.0,5.0,95,0.00,,,0.88,0,Wunderground v.1.15,2013-09-24 03:47:00,
2013-09-23 23:57:00,76.8,75.3,29.92,SSE,160,4.0,5.0,95,0.00,,,0.88,0,Wunderground v.1.15,2013-09-24 03:57:00,